Location: Apeadero de Los Molinos-Guadarrama
(40.7091°N, 4.0689°W)
Time: 12:12:21
(UTC+00:00)

Cosmos 1666 Rocket - Pass Details

Date: 14 May 2021
Orbit: 603 x 634 km, 82.5° (Epoch: 18 June)

Event Time Altitude Azimuth Distance (km) Brightness Sun altitude
Rises 20:16:27 0° 355° (N) 2,895 7.6 -9.1°
Reaches altitude 10° 20:18:44 10° 359° (N) 1,980 6.7 -9.5°
Maximum altitude 20:23:04 62° 80° (E) 690 3.6 -10.1°
Drops below altitude 10° 20:27:20 10° 162° (SSE) 1,949 5.6 -10.8°
Enters shadow 20:27:27 - 162° (SSE) 1,999 5.7 -10.8°
